Regional Weather Roundup
Issued by NWS Newport/Morehead, NC

Current Version | Previous Version | Text Only | Print | Product List | Glossary Off
Versions: 1 2 3 4 5 6 7 8 9 10 11 12 13 14 15 16 17 18 19 20 21 22 23 24 25 26 27 28 29 30 31 32 33 34 35 36 37 38 39 40 41 42 43 44 45 46 47 48 49 50
000 ASUS42 KMHX 210510 RWRMHX WEATHER ROUNDUP FOR EASTERN NORTH CAROLINA NATIONAL WEATHER SERVICE NEWPORT/MOREHEAD CITY NC 100 AM EDT TUE OCT 21 2014 NOTE: "FAIR" INDICATES FEW OR NO CLOUDS BELOW 12,000 FEET WITH NO SIGNIFICANT WEATHER AND/OR OBSTRUCTIONS TO VISIBILITY NCZ015>017-031-032-045>047-102-103-210600- NORTH COAST CITY SKY/WX TMP DP RH WIND PRES REMARKS EDENTON PTCLDY 62 57 84 SW5 29.98S ELIZABETH CITY PTCLDY 58 54 86 S3 29.98F KITTY HAWK PTCLDY 65 60 86 CALM 29.97F MANTEO PTCLDY 59 58 96 CALM 29.98F $$ NCZ045>047-081-094-103-104-210600- CENTRAL COAST CITY SKY/WX TMP DP RH WIND PRES REMARKS FRISCO MOCLDY 69 60 73 S10 29.98F SWANQUARTER N/A 59 N/A N/A CALM 29.94S $$ NCZ095-097-098-100-101-210600- SOUTHERN COAST CITY SKY/WX TMP DP RH WIND PRES REMARKS BEAUFORT MOCLDY 65 62 90 SE6 29.97F CEDAR ISLAND N/A 68 N/A N/A S6 30.00F JACKSONVILLE MOCLDY 56 55 97 CALM 29.97F PINEY ISLAND LGT RAIN 65 60 84 SW9 29.98F WILMINGTON MOCLDY 56 55 97 CALM 29.97F $$ NCZ011>013-027>030-043-044-078>080-089-090>093-098-210600- COASTAL PLAIN CITY SKY/WX TMP DP RH WIND PRES REMARKS AHOSKIE MOCLDY 52 50 94 CALM 29.98S CLINTON CLEAR 55 55 100 CALM 29.98F ELIZABETHTOWN CLEAR 57 55 92 CALM 29.98F GOLDSBORO MOCLDY 56 55 98 CALM 29.96F GREENVILLE CLEAR 54 54 100 CALM 29.99F FOG HAVELOCK MOCLDY 59 57 93 SE3 29.99F KENANSVILLE CLEAR 53 51 95 CALM 29.98F KINSTON CLEAR 53 52 97 CALM 29.98F NEW BERN PTCLDY 56 53 90 SW3 29.98F RICHLANDS PTCLDY 54 48 82 CALM 29.98F ROCKY MOUNT MOCLDY 55 53 93 CALM 29.97F WASHINGTON CLEAR 55 54 94 CALM 29.98F WHITEVILLE PTCLDY 57 55 94 CALM 29.98F $$ AMZ130-135-150-152-154-156-158-170-250-252-270-ANZ085-086-088-633-658-670-210600- MARINE OBSERVATIONS STATION/POSITION TIME TEMP WIND PRES WAVE SWELL AIR SEA DIR/SP/G HT/PER HT/PER (UTC) (F) (DEG/KT/KT) (MB) (FT/S) (FT/S) CHESAPEAKE LIGHT 0400 66 210/ 17/ 19 1015.4 64 E VA BEACH 0500 71 69 220/ 16/ 19 1014.6 4/ 5 2/11 DUCK 0500 65 69 190/ 6/ 7 1014.3 2 E DUCK 0500 N/A 2/11 2/11 10 NE DUCK 0500 71 N/A 3/11 2/11 OREGON INLET 0500 67 67 160/ 7/ 9 1015.0 13E OREGON INLT 0500 73 N/A 3/ 4 2/13 HATTERAS CG 0500 71 71 160/ 8/ 13 1015.5 DIAMOND BUOY 0500 72 180/ 16/ 19 1015.5 3/ 8 2/ 8 17 S OCRACOKE 0400 VRB 14/ 16 1015.8 CAPE LOOKOUT 0400 67 240/ 4/ 4 1016.0 BEAUFORT LAB 0500 67 69 140/ 4/ 7 1014.2 30 SE NEW RIVER 0400 74 76 170/ 8/ 10 1014.6 5 SE WRIGHTSVLE 0500 67 73 280/ 6/ 8 N/A 225 S CAPE HAT 0440 75 80 170/ 14/ 17 1016.9 4/ 8 3/ 8 41 SE CHARLESTON 0500 75 80 10/ 2/ 2 1015.0 2/ 8 2/ 8 $$

USA.gov is the U.S. government's official web portal to all federal, state and local government web resources and services.